CW3081 Weather Reports


time (UTC)temp
C
wind
direction
speed
KPH
gust
KPH
rain 1hr
cm
rain 24hr
cm
rain mn
cm
humidity
%
barometer
mb
20260505023051 20 205 0.0 1.6 0.00 0.00 0.00 55 1010.3
20260505021545 20 167 0.0 1.6 0.00 0.00 0.00 54 1010.3
20260505020046 20 232 0.0 1.6 0.00 0.00 0.00 54 1010.2
20260505014550 20 238 0.0 1.6 0.00 0.00 0.00 55 1010.0
20260505013047 20 238 0.0 1.6 0.00 0.00 0.00 54 1010.2
20260505011548 21 238 0.0 1.6 0.00 0.00 0.00 54 1010.1
20260505010105 21 0 0.0 0.0 0.00 0.00 0.00 52 1010.2
20260505004546 22 0 0.0 1.6 0.00 0.00 0.00 49 1010.0
20260505003045 22 238 0.0 1.6 0.00 0.00 0.00 47 1010.1
20260505001539 23 241 0.0 1.6 0.00 0.00 0.00 46 1010.1
20260505000049 23 238 1.6 3.2 0.00 0.00 0.00 45 1010.0
20260504234545 23 231 1.6 3.2 0.00 0.00 0.00 44 1010.2
20260504233043 23 233 1.6 4.8 0.00 0.00 0.00 42 1010.3
20260504231551 24 227 3.2 6.4 0.00 0.00 0.00 42 1010.3
20260504230046 24 255 3.2 6.4 0.00 0.00 0.00 43 1010.2
20260504224546 24 211 3.2 9.7 0.00 0.00 0.00 43 1010.2
20260504223059 25 240 0.0 6.4 0.00 0.00 0.00 44 1010.1
20260504221556 25 205 3.2 9.7 0.00 0.00 0.00 41 1010.2
20260504220051 25 263 3.2 9.7 0.00 0.00 0.00 42 1010.0
20260504214558 25 236 1.6 8.0 0.00 0.00 0.00 43 1009.9
20260504213059 25 239 3.2 9.7 0.00 0.00 0.00 42 1010.1
20260504211549 25 277 3.2 8.0 0.00 0.00 0.00 41 1010.0
20260504210045 25 143 1.6 6.4 0.00 0.00 0.00 46 1010.2
20260504204553 25 236 1.6 4.8 0.00 0.00 0.00 45 1010.2
20260504203049 25 248 1.6 6.4 0.00 0.00 0.00 47 1010.4
20260504201552 25 253 3.2 8.0 0.00 0.00 0.00 46 1010.6
20260504200047 26 271 3.2 8.0 0.00 0.00 0.00 43 1010.8
20260504194549 26 264 1.6 8.0 0.00 0.00 0.00 44 1010.9
20260504193041 25 261 3.2 8.0 0.00 0.00 0.00 45 1011.2
20260504191548 26 182 1.6 6.4 0.00 0.00 0.00 46 1011.3
20260504190048 25 274 4.8 8.0 0.00 0.00 0.00 46 1011.5
20260504184542 25 226 3.2 6.4 0.00 0.00 0.00 48 1011.7
20260504183046 25 226 3.2 9.7 0.00 0.00 0.00 49 1011.7
20260504181550 25 214 3.2 6.4 0.00 0.00 0.00 49 1012.0
20260504180049 25 276 3.2 6.4 0.00 0.00 0.00 51 1012.1
20260504174550 25 180 0.0 6.4 0.00 0.00 0.00 53 1012.1
20260504173049 24 272 3.2 6.4 0.00 0.00 0.00 52 1012.5
20260504171549 24 261 3.2 4.8 0.00 0.00 0.00 54 1012.5
20260504081551 12 0 0.0 1.6 0.00 0.00 0.00 68 1013.7
20260504044542 12 217 0.0 1.6 0.00 0.00 0.00 65 1014.8
20260504043042 12 215 0.0 1.6 0.00 0.00 0.00 64 1015.0
20260504041546 12 215 0.0 1.6 0.00 0.00 0.00 65 1015.1
20260504040107 11 208 0.0 1.6 0.00 0.00 0.00 67 1015.3
20260504034545 11 0 0.0 0.0 0.00 0.00 0.00 72 1015.5
20260504033047 11 0 0.0 0.0 0.00 0.00 0.00 71 1015.6
20260504031542 11 0 0.0 0.0 0.00 0.00 0.00 69 1015.6
20260504030049 11 0 0.0 1.6 0.00 0.00 0.00 71 1015.7
20260504024547 12 0 0.0 0.0 0.00 0.00 0.00 70 1015.7